Other Surface Observations
Issued by NWS Jacksonville, FL

Home | Current Version | Previous Version | Text Only | Print | Product List | Glossary On
Versions: 1 2 3 4 5 6 7 8 9 10 11 12 13 14 15 16 17 18 19 20 21 22 23 24 25 26 27 28 29 30 31 32 33 34 35 36 37 38 39 40 41 42 43 44 45 46 47 48 49 50
813
SXUS52 KJAX 232213
OSOJAX
OTHER SURFACE OBSERVATIONS
NATIONAL WEATHER SERVICE JACKSONVILLE FL
600 PM EDT TUE AUG 23 2016

FLZ020>025-030>033-035>038-040-232300-
...FLORIDA...

CITY           SKY/WX    TMP DP  RH WIND       PRES   REMARKS
CECIL FIELD    MOSUNNY   86  77  74 NE13      30.14R
HERLONG FIELD  NOT AVBL
FERNANDINA BCH NOT AVBL
LAKE CITY      TSTM      73  73 100 CALM      30.17S
JUNIPER SPGS   NOT AVBL
BUNNELL        NOT AVBL
KEYSTONE HGTS  FAIR      82  81  94 CALM      30.14R
$$

GAZ132>136-149>154-162>166-232300-
...GEORGIA...

CITY           SKY/WX    TMP DP  RH WIND       PRES   REMARKS
JESUP          RAIN      77  77 100 CALM      30.19R
HOMERVILLE     RAIN      77  77 100 CALM      30.17F
SWAINSBORO     MOCLDY    81  77  89 S5        30.19S
CORDELE        NOT AVBL
EASTMAN        FAIR      83  68  59 E5        30.19F
$$

PLEASE NOTE:  THESE OBSERVATIONS ARE NOT QUALITY CONTROLLED AND MAY
NOT BE AVAILABLE AT ALL TIMES.
$$




USA.gov is the U.S. government's official web portal to all federal, state and local government web resources and services.